MOZHAETS 4 (RS22)

Last updated on Fri Sep 11 2026 00:03:12 GMT+0000 (Coordinated Universal Time)

1 27939U 03042A 26253.63258690 .00000832 00000+0 13600-3 0 9991 2 27939 98.3480 80.4290 0011430 4.3925 37.8927 14.73594873228132
UTC large
Height (km)
Speed (km/s)
/
Latitude / Longitude
Inclination (degrees)
Orbital Period (minutes)
Azimuth
Elevation
Range (km)
Doppler Factor

Next 0 passes for location: London (51.5072 / 0.1276)

No passes found over London.
MOZHAETS 4 (RS22)